• In Belarus
  • List of Countries
  • For 7 days
  • Water Temperature
  • Satellite Maps
  • Weather Map
  • Weather Widgets
  • user-avatar
    Login

    Hourly Weather Bonn

    Today, 23 February, Friday

    Time Temperature Precipitation Wind Pressure Humidity
    00:00 -4°C° 0 mm 3 mps 759 mmHg 65%
    01:00 -4°C° 0 mm 3 mps 759 mmHg 65%
    02:00 -4°C° 0 mm 3 mps 759 mmHg 65%
    03:00 -4°C° 0 mm 3 mps 759 mmHg 65%
    04:00 -4°C° 0 mm 3 mps 759 mmHg 65%
    05:00 -4°C° 0 mm 3 mps 759 mmHg 65%
    06:00 -5°C° 0 mm 3 mps 759 mmHg 65%
    07:00 -4°C° 0 mm 4 mps 759 mmHg 60%
    08:00 -3°C° 0 mm 4 mps 759 mmHg 55%
    09:00 -4°C° 0 mm 5 mps 759 mmHg 49%
    10:00 -2°C° 0 mm 5 mps 759 mmHg 45%
    11:00 -1°C° 0 mm 5 mps 759 mmHg 41%
    12:00 0°C° 0 mm 5 mps 758 mmHg 37%
    13:00 0°C° 0 mm 5 mps 758 mmHg 36%
    14:00 0°C° 0 mm 5 mps 758 mmHg 36%
    15:00 +1°C° 0 mm 5 mps 758 mmHg 35%
    16:00 -1°C° 0 mm 5 mps 758 mmHg 38%
    17:00 -2°C° 0 mm 4 mps 758 mmHg 40%
    18:00 -3°C° 0 mm 4 mps 758 mmHg 43%
    19:00 -3°C° 0 mm 4 mps 758 mmHg 42%
    20:00 -4°C° 0 mm 4 mps 759 mmHg 41%
    21:00 -4°C° 0 mm 4 mps 759 mmHg 40%
    22:00 -4°C° 0 mm 4 mps 759 mmHg 40%
    23:00 -4°C° 0 mm 4 mps 759 mmHg 40%

    Tomorrow, 24 February, Saturday

    Time Temperature Precipitation Wind Pressure Humidity
    00:00 -5°C° 0 mm 4 mps 759 mmHg 40%
    01:00 -5°C° 0 mm 4 mps 759 mmHg 39%
    02:00 -5°C° 0 mm 4 mps 759 mmHg 38%
    03:00 -5°C° 0 mm 4 mps 759 mmHg 37%
    04:00 -6°C° 0 mm 5 mps 759 mmHg 36%
    05:00 -5°C° 0 mm 5 mps 760 mmHg 35%
    06:00 -5°C° 0 mm 5 mps 760 mmHg 35%
    07:00 -4°C° 0 mm 5 mps 760 mmHg 35%
    08:00 -3°C° 0 mm 6 mps 760 mmHg 35%
    09:00 -2°C° 0 mm 6 mps 761 mmHg 34%
    10:00 -1°C° 0 mm 6 mps 761 mmHg 37%
    11:00 -1°C° 0 mm 6 mps 761 mmHg 39%
    12:00 +1°C° 0 mm 6 mps 760 mmHg 41%
    13:00 +1°C° 0 mm 6 mps 760 mmHg 41%
    14:00 +1°C° 0 mm 6 mps 760 mmHg 42%
    15:00 +1°C° 0 mm 6 mps 760 mmHg 42%
    16:00 0°C° 0 mm 5 mps 761 mmHg 44%
    17:00 -1°C° 0 mm 5 mps 761 mmHg 45%
    18:00 -4°C° 0 mm 5 mps 761 mmHg 47%
    19:00 -4°C° 0 mm 5 mps 762 mmHg 48%
    20:00 -4°C° 0 mm 5 mps 762 mmHg 49%
    21:00 -5°C° 0 mm 5 mps 762 mmHg 50%
    22:00 -5°C° 0 mm 5 mps 762 mmHg 49%
    23:00 -5°C° 0 mm 5 mps 763 mmHg 48%

    Day after tomorrow, 25 February, Sunday

    Time Temperature Precipitation Wind Pressure Humidity
    00:00 -6°C° 0 mm 5 mps 763 mmHg 47%
    01:00 -6°C° 0 mm 5 mps 763 mmHg 44%
    02:00 -6°C° 0 mm 5 mps 763 mmHg 41%
    03:00 -7°C° 0 mm 5 mps 763 mmHg 38%
    04:00 -7°C° 0 mm 5 mps 763 mmHg 37%
    05:00 -7°C° 0 mm 5 mps 764 mmHg 36%
    06:00 -7°C° 0 mm 5 mps 764 mmHg 34%
    07:00 -7°C° 0 mm 5 mps 764 mmHg 34%
    08:00 -6°C° 0 mm 5 mps 765 mmHg 33%
    09:00 -6°C° 0 mm 5 mps 765 mmHg 32%
    10:00 -5°C° 0 mm 5 mps 765 mmHg 31%
    11:00 -4°C° 0 mm 5 mps 765 mmHg 30%
    12:00 -2°C° 0 mm 5 mps 764 mmHg 28%
    13:00 -2°C° 0 mm 5 mps 764 mmHg 29%
    14:00 -2°C° 0 mm 5 mps 764 mmHg 30%
    15:00 -2°C° 0 mm 5 mps 764 mmHg 31%
    16:00 -3°C° 0 mm 4 mps 764 mmHg 35%
    17:00 -4°C° 0 mm 4 mps 764 mmHg 39%
    18:00 -5°C° 0 mm 4 mps 764 mmHg 43%
    19:00 -5°C° 0 mm 4 mps 764 mmHg 45%
    20:00 -5°C° 0 mm 3 mps 765 mmHg 48%
    21:00 -5°C° 0 mm 3 mps 765 mmHg 50%
    22:00 -6°C° 0 mm 3 mps 765 mmHg 53%
    23:00 -6°C° 0 mm 3 mps 765 mmHg 56%

    26 February, Monday

    Time Temperature Precipitation Wind Pressure Humidity
    00:00 -6°C° 0 mm 3 mps 765 mmHg 58%
    01:00 -6°C° 0 mm 3 mps 765 mmHg 60%
    02:00 -6°C° 0 mm 3 mps 764 mmHg 62%
    03:00 -7°C° 0 mm 3 mps 764 mmHg 64%
    04:00 -7°C° 0 mm 3 mps 764 mmHg 65%
    05:00 -7°C° 0 mm 3 mps 764 mmHg 66%
    06:00 -7°C° 0 mm 3 mps 764 mmHg 67%
    07:00 -8°C° 0 mm 4 mps 764 mmHg 63%
    08:00 -7°C° 0 mm 4 mps 764 mmHg 58%
    09:00 -6°C° 0 mm 5 mps 764 mmHg 53%
    10:00 -6°C° 0 mm 5 mps 764 mmHg 49%
    11:00 -5°C° 0 mm 5 mps 764 mmHg 44%
    12:00 -5°C° 0 mm 5 mps 763 mmHg 40%
    13:00 -5°C° 0 mm 5 mps 763 mmHg 39%
    14:00 -5°C° 0 mm 5 mps 762 mmHg 37%
    15:00 -5°C° 0 mm 5 mps 762 mmHg 36%
    16:00 -4°C° 0 mm 4 mps 762 mmHg 39%
    17:00 -5°C° 0 mm 4 mps 762 mmHg 42%
    18:00 -6°C° 0 mm 3 mps 762 mmHg 45%
    19:00 -6°C° 0 mm 3 mps 762 mmHg 46%
    20:00 -6°C° 0 mm 3 mps 762 mmHg 47%
    21:00 -7°C° 0 mm 3 mps 762 mmHg 49%
    22:00 -7°C° 0 mm 3 mps 762 mmHg 50%
    23:00 -7°C° 0 mm 3 mps 762 mmHg 51%

    27 February, Tuesday

    Time Temperature Precipitation Wind Pressure Humidity
    00:00 -7°C° 0 mm 3 mps 761 mmHg 52%
    01:00 -8°C° 0 mm 3 mps 761 mmHg 53%
    02:00 -8°C° 0 mm 3 mps 761 mmHg 54%
    03:00 -8°C° 0 mm 3 mps 760 mmHg 54%
    04:00 -8°C° 0 mm 3 mps 760 mmHg 56%
    05:00 -9°C° 0 mm 3 mps 760 mmHg 58%
    06:00 -9°C° 0 mm 3 mps 760 mmHg 60%
    07:00 -8°C° 0 mm 3 mps 760 mmHg 55%
    08:00 -8°C° 0 mm 3 mps 760 mmHg 50%
    09:00 -8°C° 0 mm 4 mps 760 mmHg 46%
    10:00 -7°C° 0 mm 4 mps 759 mmHg 41%
    11:00 -5°C° 0 mm 4 mps 759 mmHg 37%
    12:00 -5°C° 0 mm 4 mps 758 mmHg 32%
    13:00 -5°C° 0 mm 4 mps 758 mmHg 31%
    14:00 -4°C° 0 mm 4 mps 758 mmHg 30%
    15:00 -4°C° 0 mm 4 mps 757 mmHg 29%
    16:00 -5°C° 0 mm 3 mps 757 mmHg 31%
    17:00 -6°C° 0 mm 3 mps 757 mmHg 34%
    18:00 -6°C° 0 mm 2 mps 757 mmHg 36%
    19:00 -6°C° 0 mm 2 mps 757 mmHg 37%
    20:00 -6°C° 0 mm 2 mps 757 mmHg 38%
    21:00 -6°C° 0 mm 2 mps 757 mmHg 39%
    22:00 -7°C° 0 mm 2 mps 757 mmHg 40%
    23:00 -7°C° 0 mm 2 mps 757 mmHg 41%

    28 February, Wednesday

    Time Temperature Precipitation Wind Pressure Humidity
    00:00 -7°C° 0 mm 2 mps 757 mmHg 42%
    01:00 -8°C° 0 mm 2 mps 757 mmHg 43%
    02:00 -8°C° 0 mm 2 mps 757 mmHg 43%
    03:00 -8°C° 0 mm 2 mps 757 mmHg 44%
    04:00 -9°C° 0 mm 2 mps 756 mmHg 45%
    05:00 -9°C° 0 mm 2 mps 756 mmHg 45%
    06:00 -9°C° 0 mm 2 mps 756 mmHg 46%
    07:00 -9°C° 0 mm 3 mps 756 mmHg 43%
    08:00 -9°C° 0 mm 3 mps 756 mmHg 40%
    09:00 -8°C° 0 mm 3 mps 756 mmHg 37%
    10:00 -7°C° 0 mm 3 mps 756 mmHg 35%
    11:00 -6°C° 0 mm 3 mps 755 mmHg 32%
    12:00 -5°C° 0 mm 3 mps 755 mmHg 30%
    13:00 -5°C° 0 mm 3 mps 754 mmHg 29%
    14:00 -5°C° 0 mm 3 mps 754 mmHg 29%
    15:00 -5°C° 0 mm 4 mps 753 mmHg 29%
    16:00 -6°C° 0 mm 3 mps 753 mmHg 31%
    17:00 -6°C° 0 mm 3 mps 753 mmHg 34%
    18:00 -7°C° 0 mm 3 mps 753 mmHg 36%
    19:00 -8°C° 0 mm 4 mps 753 mmHg 38%
    20:00 -8°C° 0 mm 4 mps 752 mmHg 40%
    21:00 -10°C° 0 mm 5 mps 752 mmHg 41%
    22:00 -10°C° 0 mm 5 mps 752 mmHg 42%
    23:00 -10°C° 0 mm 5 mps 751 mmHg 43%
    Show more